Dewpoint
68 69 69 69 68 70 68 66 67 67 67 67 67 68 68 69 70 71 72 71 71 70 70 70 69 70 70 70 69 68 68 68 68 67 67 68 70 70 70 70 69 69 68
67 68 69 69 69 68 69 67 67 67 68 67 67 67 68 69 70 71 71 71 71 72 71 70 70 70 70 68 69 70 69 67 67 68 70 70 70 70 70 70 69 69 66
67 68 68 68 67 68 69 68 67 68 67 66 67 67 68 68 69 70 71 71 71 71 71 70 70 70 69 68 68 68 67 68 70 70 70 70 70 70 70 69 69 69 63
68 69 68 67 68 68 68 68 66 67 66 65 65 65 66 67 68 69 69 70 70 71 72 72 71 70 69 68 68 69 70 70 70 70 70 70 70 70 69 69 69 68 62
69 69 67 68 69 69 68 66 67 66 65 64 65 65 64 64 65 65 67 68 68 69 69 69 71 71 69 69 69 69 70 70 71 71 71 71 70 69 68 69 69 67 62
68 69 68 68 69 67 66 64 65 65 65 64 64 65 65 66 66 65 65 65 66 67 67 67 67 67 70 70 70 70 71 70 71 71 71 71 70 69 68 69 69 67 62
70 67 67 68 67 66 66 66 64 64 63 64 62 62 63 64 64 66 67 67 67 68 68 68 68 68 68 69 70 71 70 70 69 70 71 71 70 69 67 68 69 67 64
69 68 67 68 66 66 67 65 63 64 63 63 61 60 58 56 57 61 65 66 66 67 68 69 69 69 69 69 68 69 70 70 70 69 69 70 71 69 68 67 67 67 66
70 70 69 69 66 66 65 63 63 63 61 63 62 61 58 55 58 58 61 62 63 64 65 67 68 69 69 68 68 68 69 69 70 71 69 69 70 70 69 68 67 67 66
71 71 69 70 68 66 66 64 67 65 61 60 63 62 62 60 56 55 57 60 62 62 62 63 65 67 68 69 68 69 69 69 69 70 71 69 69 70 71 70 69 68 67
71 71 70 70 68 67 68 68 68 66 66 62 62 64 62 61 61 58 57 57 60 62 63 63 64 65 65 66 67 67 67 67 68 69 70 71 70 69 69 70 70 70 69
71 71 71 70 69 68 68 68 68 68 68 68 66 66 64 59 58 60 59 60 60 60 61 62 63 64 64 64 65 65 66 67 67 68 68 69 70 70 69 69 70 70 70
69 70 70 71 70 69 69 69 68 68 68 68 68 66 66 65 62 62 61 60 60 61 61 63 63 64 64 65 65 65 65 65 65 65 66 67 68 69 69 69 69 69 70
69 70 70 70 71 70 69 69 69 70 70 68 68 69 68 67 66 64 61 59 57 58 60 60 65 65 66 66 65 65 67 65 65 66 66 67 67 67 67 68 68 68 69
69 70 70 70 70 71 70 70 70 69 70 70 70 69 69 69 67 66 67 62 59 57 57 60 61 64 66 68 66 67 68 68 68 68 68 68 68 67 68 67 67 67 67
69 70 70 71 70 70 71 70 70 70 70 70 70 70 69 69 68 67 68 66 63 61 60 61 62 63 66 68 69 70 70 69 69 69 68 68 67 68 69 68 68 68 67
69 69 70 70 70 70 71 70 70 70 70 70 70 69 69 69 69 68 68 69 67 65 64 66 64 67 68 69 70 71 72 71 71 70 69 68 68 68 69 70 69 66 65
69 69 70 70 70 70 71 71 70 70 69 69 69 70 69 69 69 70 69 69 68 68 67 66 67 68 69 70 70 71 71 72 71 69 69 68 68 69 69 68 64 63 62
67 68 69 69 70 71 71 71 70 70 70 69 69 69 69 69 68 69 70 69 69 70 69 68 69 70 70 70 71 71 72 72 71 70 69 69 70 70 69 63 62 60 59
67 67 68 69 70 70 71 71 71 70 70 70 70 70 70 70 69 69 69 69 70 70 70 70 69 69 69 71 71 70 70 71 70 70 70 70 71 72 66 61 60 58 58
67 67 67 69 69 71 71 71 71 70 70 70 70 70 70 70 70 70 70 70 70 69 69 69 69 69 69 69 69 70 70 69 69 71 71 71 72 73 70 63 60 58 58
67 67 67 67 68 69 70 70 71 71 71 70 70 70 71 70 70 70 69 70 71 70 70 70 70 69 69 70 70 70 69 68 67 71 71 70 72 72 70 63 58 58 57
66 67 66 66 67 69 68 69 70 71 71 70 70 70 70 70 70 71 70 69 68 68 70 71 70 70 70 71 71 70 69 69 69 70 71 69 72 71 65 60 58 57 56
64 65 66 66 66 67 67 67 68 70 70 70 70 70 70 70 70 70 70 70 70 70 70 69 69 71 72 72 72 71 70 70 71 71 72 70 71 70 65 62 57 56 56
65 64 64 65 65 66 65 66 67 68 69 69 70 70 70 70 70 69 70 70 70 70 71 70 70 70 69 69 69 70 69 69 68 69 72 71 70 72 70 65 61 58 55
67 66 65 65 64 64 64 64 65 67 66 67 69 70 69 70 69 68 70 70 69 69 70 70 70 69 68 69 67 68 69 69 69 69 71 70 72 71 69 69 64 61 59
Wind_Speed
5 4 2 2 3 3 2 2 4 3 3 5 1 5 6 6 5 3 2 3 2 2 2 2 2 1 1 1 1 2 2 4 5 6 6 7 9 9 10 10 10 8 7
6 4 3 1 1 1 1 2 1 2 3 3 4 4 4 5 4 3 2 2 5 4 3 3 3 4 3 3 4 5 5 6 7 7 7 7 9 8 9 7 6 5 4
7 5 4 2 3 2 0 1 3 1 5 6 5 2 2 3 3 2 3 3 4 5 6 5 5 6 6 6 6 6 7 8 9 9 9 8 8 7 6 5 3 2 2
7 5 4 3 3 1 2 3 4 3 4 4 3 2 0 1 2 3 4 5 5 4 5 8 7 8 8 8 8 8 9 9 9 9 9 9 8 7 5 2 0 1 1
8 5 6 4 3 2 1 1 3 1 2 2 1 1 2 3 4 4 7 7 7 6 5 7 9 9 9 9 9 9 9 9 9 10 9 8 8 6 4 1 2 3 4
8 6 5 4 3 2 1 1 2 2 1 2 1 2 5 6 6 7 8 7 8 8 8 8 7 7 9 10 11 11 11 11 11 11 10 9 8 7 4 4 5 6 6
6 6 6 6 4 5 2 2 3 3 2 2 1 3 5 8 9 10 8 8 9 9 9 9 8 7 7 10 11 12 13 13 13 12 11 10 9 8 7 6 7 8 9
7 7 8 7 5 4 2 5 3 2 1 3 2 1 5 4 4 6 8 10 11 9 10 10 10 10 9 8 10 12 13 14 13 13 13 12 11 10 9 9 9 11 12
9 8 8 7 6 5 6 5 4 4 4 2 1 2 2 3 5 3 3 7 10 10 10 10 10 10 10 10 11 11 14 15 15 15 15 14 13 13 13 13 13 14 15
9 8 9 10 8 7 6 5 5 4 3 4 1 1 2 2 2 6 3 5 5 8 10 10 10 10 10 10 12 14 16 17 17 16 17 17 16 15 15 15 16 18 18
7 7 7 6 9 9 7 5 5 5 3 4 2 1 1 2 1 0 5 5 5 6 9 9 9 10 10 10 11 13 16 17 18 19 19 19 20 18 19 19 19 20 20
9 8 6 7 6 6 7 7 5 4 4 4 4 2 2 1 1 1 2 2 4 5 6 7 8 8 8 10 11 15 16 18 19 21 22 22 21 21 22 23 23 23 24
10 12 10 9 8 9 7 7 7 5 5 4 4 2 2 1 1 1 0 2 2 3 4 4 6 6 7 9 11 13 15 18 20 22 23 23 22 21 20 23 25 25 26
14 10 12 10 10 7 7 7 6 6 5 5 5 4 2 2 1 1 1 2 4 3 3 4 3 6 7 8 10 11 11 17 19 19 19 19 19 19 16 18 21 22 23
12 12 12 13 11 10 9 8 8 8 6 5 6 5 4 3 2 2 1 2 1 4 4 3 3 5 7 9 10 10 11 16 18 16 17 19 19 16 15 13 15 17 18
11 11 14 13 14 14 12 10 9 8 7 7 6 6 6 4 4 3 2 2 2 1 4 2 3 5 9 8 10 12 13 13 12 16 19 19 17 16 17 15 12 11 11
12 14 14 15 13 14 13 12 11 10 9 9 7 8 8 5 5 4 3 4 4 3 5 5 4 5 5 12 15 13 10 10 12 18 19 21 18 17 17 12 10 10 9
14 14 15 14 14 14 14 15 15 12 13 12 11 9 11 6 7 6 6 7 6 5 4 10 5 5 7 10 11 14 13 10 12 18 22 19 16 18 13 8 10 13 13
19 16 13 15 15 15 15 16 16 16 15 14 13 12 13 9 10 7 7 7 8 6 6 6 9 4 5 6 10 10 12 13 11 18 15 14 17 17 6 10 11 12 12
20 20 18 17 16 15 15 15 16 16 16 15 15 14 14 12 13 12 11 11 9 9 8 9 10 10 7 5 6 11 15 11 14 15 10 11 15 12 9 10 11 12 13
20 20 20 18 17 15 14 16 15 16 17 18 16 15 15 15 16 15 11 13 11 11 11 12 13 10 11 10 12 8 10 14 13 3 9 15 14 9 3 7 7 10 11
19 18 20 21 22 19 19 22 18 17 18 18 19 16 16 16 17 19 19 19 15 14 14 11 13 15 16 12 10 11 10 12 9 0 7 19 10 6 2 3 5 8 10
19 22 22 21 22 22 25 27 27 19 18 19 19 18 16 14 17 16 17 20 20 21 22 17 18 17 17 14 10 14 10 6 9 11 6 13 7 6 3 5 5 7 9
21 20 21 22 23 22 26 30 31 24 20 20 19 19 20 18 17 17 15 16 16 16 17 16 18 21 18 17 15 14 10 9 9 12 6 7 10 10 5 5 6 7 7
20 22 21 21 24 25 27 31 29 23 24 24 20 20 20 20 20 22 17 18 18 18 15 21 23 24 25 22 17 6 12 10 13 9 4 5 7 3 4 5 6 3 9
21 19 22 23 25 26 26 31 31 24 24 23 21 19 25 26 23 22 21 19 19 22 15 15 13 17 22 20 18 14 12 13 12 7 3 5 5 3 5 3 6 3 1
Wind_Direction
162 146 144 119 110 95 125 112 92 82 24 359 193 147 153 156 166 191 199 203 224 200 212 186 205 226 262 273 292 312 329 332 335 335 338 340 335 351 350 15 19 20 33
176 180 173 235 80 98 139 195 37 354 0 22 142 128 150 162 182 191 231 290 248 241 251 250 251 266 264 282 299 308 310 318 316 318 320 329 334 344 347 20 11 20 35
208 183 190 236 285 335 176 240 33 32 51 68 105 113 138 170 190 206 242 262 276 265 260 270 276 275 283 289 294 299 305 304 299 311 322 322 325 333 347 7 12 46 38
215 200 186 206 215 192 335 9 7 345 50 68 102 97 254 211 243 244 254 258 259 264 281 272 274 275 282 287 289 293 296 303 307 311 312 315 318 328 338 358 102 178 220
220 206 185 192 229 228 215 223 68 67 77 65 104 283 261 254 256 261 256 256 258 258 261 273 281 280 278 287 292 295 296 299 297 296 300 305 305 309 308 261 219 232 230
232 186 180 197 226 241 200 111 113 88 116 172 325 269 261 265 258 258 263 265 261 261 261 266 276 278 276 278 286 294 298 295 291 291 288 287 290 288 278 247 236 236 238
215 219 186 176 187 214 187 166 99 172 142 161 123 324 278 258 261 259 259 263 266 265 264 260 263 269 280 278 279 283 284 286 288 288 285 278 275 278 276 263 252 250 244
203 196 180 182 181 192 160 168 168 149 151 160 103 48 336 331 306 270 253 253 260 264 265 264 264 265 269 278 278 280 281 281 285 287 286 283 278 278 276 269 256 251 247
207 193 195 185 185 184 171 173 153 162 173 161 110 103 348 324 324 319 303 274 269 268 273 273 269 267 269 275 282 283 282 285 284 283 285 282 280 271 265 264 262 259 249
211 201 197 189 192 198 179 173 165 162 155 160 151 183 215 229 333 335 322 317 306 275 277 282 273 271 267 269 273 273 278 281 283 282 279 275 273 271 266 263 260 259 254
225 209 209 185 185 188 186 187 179 155 130 145 170 180 229 244 159 179 310 333 321 288 276 275 274 271 269 274 281 280 281 283 283 281 280 276 269 263 265 263 260 261 258
221 219 208 215 208 197 196 204 215 197 169 144 164 166 241 289 325 0 308 320 308 308 300 303 281 283 279 278 282 281 281 283 287 291 288 285 279 274 268 265 257 258 265
220 221 206 211 214 210 206 193 203 206 201 198 188 182 193 304 207 94 296 351 344 319 323 319 351 314 303 298 295 294 296 299 302 303 304 302 299 289 280 275 273 272 271
217 215 217 221 224 205 206 201 213 224 224 228 222 203 227 245 199 90 313 343 345 331 319 327 327 11 359 353 338 324 313 316 316 316 319 321 317 312 303 283 277 276 277
219 214 216 218 223 221 205 202 213 226 232 232 242 242 249 262 245 251 357 250 317 331 317 322 323 339 349 348 345 342 329 323 326 340 337 330 327 327 330 317 301 292 288
217 207 216 219 220 221 207 204 216 220 224 234 237 243 248 256 257 262 275 270 211 213 294 276 302 311 329 339 341 336 330 326 343 336 329 332 337 348 351 354 341 327 319
211 213 211 219 217 223 219 209 218 220 226 238 238 237 253 244 251 248 234 246 259 208 275 294 272 300 311 330 330 333 334 344 333 327 334 335 341 348 356 360 11 18 25
211 215 213 217 227 221 216 215 219 222 224 233 241 236 250 242 243 232 231 247 255 242 248 288 291 302 302 318 319 324 331 332 332 329 330 332 341 345 359 32 60 68 65
212 214 214 219 223 225 220 222 223 222 227 229 234 235 245 237 252 249 247 254 251 253 243 259 292 294 299 315 324 322 323 325 335 323 326 333 339 345 30 89 80 68 58
214 210 213 219 222 223 220 221 221 225 228 232 234 235 240 238 244 253 256 256 261 261 261 270 283 290 289 301 302 316 326 326 325 325 327 331 327 351 118 93 73 58 50
218 214 210 212 219 220 220 218 218 224 227 231 235 240 243 243 243 246 252 261 254 264 271 278 283 288 294 305 310 312 307 315 321 290 328 337 332 352 111 77 64 55 48
217 213 216 211 214 218 220 216 212 217 222 228 235 238 243 245 251 252 252 251 246 257 265 268 276 280 288 288 296 301 306 322 323 313 333 320 331 338 69 81 75 66 50
215 220 217 214 219 219 217 218 219 218 219 223 228 233 238 240 239 245 251 253 254 249 243 251 264 267 276 274 281 293 294 286 287 297 309 309 312 320 158 138 91 72 53
217 218 221 216 220 223 220 219 221 221 225 226 221 222 229 235 228 231 243 256 255 254 253 245 240 256 255 262 253 270 286 285 284 285 237 277 295 292 182 163 125 82 69
217 221 221 216 219 227 221 222 219 222 228 232 228 226 224 230 232 226 232 248 257 259 252 249 244 248 256 255 251 257 274 284 297 298 251 272 295 279 219 215 190 146 58
224 224 228 223 217 224 222 219 217 224 231 233 232 229 226 230 231 219 223 238 251 258 251 259 256 255 254 259 251 226 254 259 271 289 231 209 280 284 286 210 200 182 95